This is the latest recevied weather packets stored in our database for station/object IT9DBI-3. If no packets are shown the sender has not sent any weather packets the latest 10 day(s).
| Time | Temp. | Humidity | Pressure | Rain* | Wind** | Luminosity | Snow |
|---|---|---|---|---|---|---|---|
| 1787832244 | 40° C | 28% | 1015.1 hPa | - | - | - | - |
| 1787831042 | 40° C | 29% | 1015.4 hPa | - | - | - | - |
| 1787829841 | 39.44° C | 27% | 1015.4 hPa | - | - | - | - |
| 1787828640 | 38.33° C | 32% | 1015.8 hPa | - | - | - | - |
| 1787827439 | 37.78° C | 35% | 1016.1 hPa | - | - | - | - |
| 1787826237 | 37.22° C | 41% | 1016.4 hPa | - | - | - | - |
| 1787825036 | 37.78° C | 38% | 1016.5 hPa | - | - | - | - |
| 1787823835 | 37.22° C | 28% | 1016.6 hPa | - | - | - | - |
| 1787822633 | 36.67° C | 39% | 1016.4 hPa | - | - | - | - |
| 1787821432 | 36.11° C | 41% | 1016.8 hPa | - | - | - | - |
| 1787820231 | 36.67° C | 30% | 1016.8 hPa | - | - | - | - |
| 1787819029 | 35.56° C | 38% | 1016.7 hPa | - | - | - | - |
| 1787817828 | 35.56° C | 40% | 1016.6 hPa | - | - | - | - |
| 1787816627 | 34.44° C | 45% | 1017.1 hPa | - | - | - | - |
| 1787815426 | 33.89° C | 52% | 1017.4 hPa | - | - | - | - |
| 1787814224 | 33.33° C | 54% | 1018 hPa | - | - | - | - |
| 1787813023 | 33.33° C | 49% | 1018 hPa | - | - | - | - |
| 1787811822 | 34.44° C | 42% | 1017.7 hPa | - | - | - | - |
| 1787810620 | 32.22° C | 44% | 1017.6 hPa | - | - | - | - |
| 1787809705 | 34.44° C | 41% | 1017.3 hPa | - | - | - | - |
| 1787808503 | 32.78° C | 44% | 1017 hPa | - | - | - | - |
| 1787807302 | 33.33° C | 36% | 1017.1 hPa | - | - | - | - |
| 1787806101 | 33.33° C | 39% | 1015.9 hPa | - | - | - | - |
| 1787804900 | 31.67° C | 46% | 1015.4 hPa | - | - | - | - |
| 1787803698 | 31.67° C | 48% | 1015.5 hPa | - | - | - | - |
* Rain since midnight (hover to see other rain measurements)
** Current wind speed in m/s (hover to see current wind gust speed)